This demonstration page uses our WeatherBlox Daily Observations layout. Learn more.

Left ArrowRight Arrow

Hourly Observations for September 18, 2021

Temp ( °F °C ) Dew Point ( °F °C ) Humidity (%) Winds ( mph kmh ) Pressure ( in mb ) Visibility ( mi km ) Precip ( " mm )
12:53 am 00:53 Clear 65 18.3 24 -4.4 21 21 SW 10 17 29.70 1006 10 16 N/A
1:53 am 01:53 Clear 61 16.1 24 -4.4 24 24 WSW 5 7 29.69 1005 10 16 N/A
2:53 am 02:53 Clear 55 12.8 24 -4.4 30 30 W 5 7 29.68 1005 10 16 N/A
3:53 am 03:53 Clear 51 10.6 24 -4.4 35 35 S 8 13 29.66 1004 10 16 N/A
4:53 am 04:53 Clear 53 11.7 25 -3.9 34 34 SW 5 7 29.63 1004 10 16 N/A
5:53 am 05:53 Clear 49 9.4 26 -3.3 41 41 E 3 6 29.61 1003 10 16 N/A
6:53 am 06:53 Clear 46 7.8 27 -2.8 47 47 N N/A 29.61 1003 10 16 N/A
7:53 am 07:53 Sunny 48 8.9 29 -1.7 48 48 E 3 6 29.59 1002 10 16 N/A
8:53 am 08:53 Sunny 62 16.7 32 undefined 32 32 WNW 3 6 29.54 1001 10 16 N/A
9:53 am 09:53 Sunny 85 29.4 25 -3.9 11 11 SSW 23 37 29.50 999 10 16 N/A
10:53 am 10:53 Sunny 88 31.1 25 -3.9 10 10 SW 30 48 29.49 999 10 16 N/A
11:53 am 11:53 Sunny 91 32.8 26 -3.3 9 9 SW 30 48 29.46 998 10 16 N/A
12:53 pm 12:53 Sunny 91 32.8 22 -5.6 8 8 WSW 32 52 29.44 997 10 16 N/A
1:53 pm 13:53 Sunny 92 33.3 20 -6.7 7 7 SW 30 48 29.43 997 10 16 N/A
2:53 pm 14:53 Sunny 91 32.8 20 -6.7 7 7 WSW 32 52 29.42 996 7 11 N/A
3:53 pm 15:53 Sunny 89 31.7 22 -5.6 8 8 WSW 24 39 29.42 996 7 11 N/A
4:53 pm 16:53 Sunny 88 31.1 23 -5 9 9 W 24 39 29.41 996 7 11 N/A
5:53 pm 17:53 Sunny 79 26.1 30 -1.1 17 17 NW 22 35 29.46 998 7 11 N/A
6:53 pm 18:53 Hazy 74 23.3 35 1.7 24 24 NNW 13 20 29.52 1000 6 10 N/A
7:53 pm 19:53 Clear 71 21.7 38 3.3 30 30 W 26 43 29.57 1002 10 16 N/A
8:53 pm 20:53 Clear 66 18.9 37 2.8 34 34 WSW 16 26 29.60 1002 10 16 N/A
9:53 pm 21:53 Clear 64 17.8 37 2.8 37 37 WSW 12 19 29.57 1001 10 16 N/A
10:53 pm 22:53 Clear 63 17.2 37 2.8 38 38 W 15 24 29.57 1001 10 16 N/A
11:53 pm 23:53 Clear 60 15.6 37 2.8 42 42 W 14 22 29.60 1002 10 16 N/A

Powered by AerisWeather